SWR180 LSZH-VTBS

Flight info

Callsign SWR180
Flight time N/A
Altitude 31000
Route DEGES Z2 UMVEG DCT DIMLO DCT INVED DCT SOKRU DCT DINRO DCT UDROS UM859 KARDE UL851 TBN UM11 REBLO M11 EDATA/N0488F330 M11 LUSAL N701 LARGI B701 TUGTA A909 LEMOD N644 DI A466 SULOM M890 LKN R460 GGC/N0494F350 R460 CEA L507 IGONI DCT WILLA WILLA1C
Aircraft B77W/H-SDE1E2E3FGHIJ2J3J4J5M1RWXY/LB1D1

Departure

Time 2026-05-07 16:26
Airport Zürich Airport (LSZH)

Arrival

Time N/A
Airport Suvarnabhumi Airport (VTBS)
Time Latitude Longitude Altitude Speed Heading
2026-05-07 14:25 47.46172 8.55588 1413 ft 0 kts 186°
2026-05-07 16:14 47.46176 8.55589 1405 ft 3 kts 186°
2026-05-07 16:15 47.46199 8.55592 1409 ft 3 kts 186°
2026-05-07 16:15 47.46222 8.55595 1413 ft 3 kts 185°
2026-05-07 16:15 47.46242 8.55599 1413 ft 3 kts 201°
2026-05-07 16:15 47.46257 8.55613 1413 ft 3 kts 259°
2026-05-07 16:16 47.46254 8.55642 1411 ft 3 kts 297°
2026-05-07 16:16 47.46244 8.55673 1412 ft 3 kts 285°
2026-05-07 16:16 47.46242 8.55683 1411 ft 0 kts 276°
2026-05-07 16:18 47.46243 8.55677 1412 ft 3 kts 276°
2026-05-07 16:18 47.46246 8.55635 1414 ft 4 kts 276°
2026-05-07 16:19 47.46249 8.55591 1413 ft 4 kts 276°
2026-05-07 16:19 47.46252 8.55538 1412 ft 7 kts 276°
2026-05-07 16:19 47.46258 8.55456 1407 ft 10 kts 276°
2026-05-07 16:19 47.46265 8.55351 1407 ft 10 kts 276°
2026-05-07 16:20 47.46273 8.55243 1398 ft 11 kts 276°
2026-05-07 16:20 47.46277 8.55184 1397 ft 15 kts 276°
2026-05-07 16:20 47.46288 8.55029 1397 ft 15 kts 276°
2026-05-07 16:20 47.46321 8.54886 1402 ft 15 kts 314°
2026-05-07 16:21 47.46413 8.54813 1401 ft 15 kts 336°
2026-05-07 16:21 47.46509 8.54749 1403 ft 15 kts 336°
2026-05-07 16:21 47.46604 8.54684 1401 ft 15 kts 334°
2026-05-07 16:21 47.46699 8.54617 1399 ft 15 kts 334°
2026-05-07 16:22 47.46781 8.54523 1385 ft 15 kts 308°
2026-05-07 16:22 47.46846 8.54401 1385 ft 15 kts 318°
2026-05-07 16:22 47.46936 8.54323 1385 ft 15 kts 335°
2026-05-07 16:22 47.47032 8.54258 1385 ft 15 kts 335°
2026-05-07 16:23 47.47127 8.54193 1385 ft 15 kts 335°
2026-05-07 16:23 47.47222 8.54127 1402 ft 15 kts 335°
2026-05-07 16:23 47.47318 8.54062 1395 ft 15 kts 335°
2026-05-07 16:23 47.47413 8.53997 1403 ft 15 kts 335°
2026-05-07 16:24 47.47508 8.53932 1406 ft 15 kts 335°
2026-05-07 16:24 47.47596 8.53850 1409 ft 15 kts 306°
2026-05-07 16:24 47.47602 8.53741 1412 ft 11 kts 251°
2026-05-07 16:24 47.47577 8.53650 1406 ft 7 kts 246°
2026-05-07 16:25 47.47541 8.53617 1410 ft 6 kts 173°
2026-05-07 16:25 47.47529 8.53625 1412 ft 0 kts 155°
2026-05-07 16:25 47.47474 8.53661 1405 ft 25 kts 155°
2026-05-07 16:25 47.47071 8.53940 1385 ft 104 kts 155°
2026-05-07 16:26 47.46177 8.54556 1405 ft 178 kts 155°
2026-05-07 16:26 47.44891 8.55437 1708 ft 211 kts 155°
2026-05-07 16:26 47.43577 8.56395 2705 ft 212 kts 144°
2026-05-07 16:26 47.42887 8.57440 3186 ft 220 kts 122°
2026-05-07 16:27 47.42392 8.60354 3669 ft 228 kts 81°
2026-05-07 16:27 47.42896 8.62590 3840 ft 241 kts 59°